EDT,Max TemperatureF,Mean TemperatureF,Min TemperatureF,Max Dew PointF,MeanDew PointF,Min DewpointF,Max Humidity, Mean Humidity, Min Humidity, Max Sea Level PressureIn, Mean Sea Level PressureIn, Min Sea Level PressureIn, Max VisibilityMiles, Mean VisibilityMiles, Min VisibilityMiles, Max Wind SpeedMPH, Mean Wind SpeedMPH, Max Gust SpeedMPH,PrecipitationIn, CloudCover, Events, WindDirDegrees
2014-4-1,80,61,41,42,36,27,65,42,18,30.04,29.99,29.94,10,10,2,28,9,37,T,2,Rain,221
2014-4-2,73,62,50,49,41,33,77,56,34,30.13,30.05,30.00,10,10,10,14,6,20,T,2,Rain,17
2014-4-3,74,62,50,59,54,47,100,75,49,30.02,29.89,29.73,10,8,1,29,5,42,0.63,5,Rain-Thunderstorm,116
2014-4-4,68,56,44,59,53,33,100,74,48,29.96,29.72,29.63,10,9,1,24,11,34,0.23,5,Rain-Thunderstorm,216
2014-4-5,53,47,40,32,28,26,67,53,38,30.18,30.11,29.98,10,10,10,14,7,21,0.00,4,,311
2014-4-6,65,49,33,34,30,27,75,55,34,30.18,30.07,29.93,10,10,10,13,6,23,0.00,0,,50
2014-4-7,68,59,49,55,47,32,83,64,45,29.92,29.64,29.41,10,10,3,28,9,41,0.02,6,Rain,144
2014-4-8,63,54,44,44,37,30,83,57,30,29.77,29.70,29.53,10,10,10,24,8,41,T,5,,267
2014-4-9,62,53,43,40,35,26,76,53,30,30.09,29.95,29.78,10,10,10,15,6,21,T,4,,301
2014-4-10,76,58,40,34,31,29,70,45,19,30.15,30.04,29.93,10,10,10,20,10,30,0.00,0,,202
2014-4-11,71,65,58,54,44,34,69,49,29,30.08,30.02,29.99,10,10,4,25,9,35,0.03,4,Rain-Thunderstorm,239
2014-4-12,80,64,48,52,47,42,100,64,28,30.19,30.07,29.93,10,10,10,16,6,23,0.00,1,,179
2014-4-13,85,74,63,50,46,43,56,41,25,30.06,29.93,29.81,10,10,10,20,10,29,0.00,0,,196
2014-4-14,74,70,65,56,51,49,68,55,41,29.82,29.74,29.65,10,10,10,28,12,37,T,5,Rain,195
2014-4-15,66,48,30,54,32,19,100,76,52,30.25,29.94,29.62,10,6,1,20,9,26,0.36,7,Rain-Snow,312
2014-4-16,53,39,25,23,20,17,84,56,27,30.45,30.35,30.26,10,10,10,13,5,18,0.00,0,,56
2014-4-17,70,53,36,26,23,17,59,37,14,30.43,30.34,30.27,10,10,10,13,5,19,0.00,0,,129
2014-4-18,73,62,50,37,30,23,40,32,24,30.31,30.25,30.17,10,10,10,13,5,17,0.00,0,,204
2014-4-19,72,60,47,40,36,30,76,50,23,30.26,30.21,30.18,10,10,10,16,8,24,0.00,0,,29
2014-4-20,78,61,44,38,31,23,71,43,14,30.28,30.19,30.10,10,10,10,13,4,18,0.00,0,,49
2014-4-21,80,62,43,45,39,34,82,54,25,30.10,29.99,29.85,10,10,10,13,4,19,0.00,0,,221
2014-4-22,75,62,49,57,48,28,93,60,27,29.89,29.78,29.70,10,9,4,18,8,29,0.07,5,Rain,274
2014-4-23,62,51,40,33,31,29,64,48,32,30.08,30.01,29.91,10,10,10,15,8,21,0.00,0,,335
2014-4-24,68,55,42,33,26,20,67,42,17,30.14,30.01,29.82,10,10,10,13,6,17,0.00,2,,63
2014-4-25,65,57,48,58,48,27,100,68,35,29.96,29.77,29.68,10,7,1,20,7,29,0.86,5,Rain-Thunderstorm,185
2014-4-26,79,62,44,48,43,37,100,62,23,29.96,29.92,29.88,10,9,2,22,8,30,T,0,Rain,232
2014-4-27,79,64,48,46,42,39,71,51,30,30.04,29.95,29.87,10,10,10,13,8,16,0.00,0,,50
2014-4-28,68,62,56,64,54,39,100,72,43,29.87,29.79,29.72,10,8,1,16,5,22,0.88,5,Rain-Thunderstorm,124
2014-4-29,74,65,55,64,60,55,100,79,57,29.88,29.72,29.62,10,6,0,17,7,28,2.41,6,Fog-Rain-Thunderstorm,197
2014-4-30,61,57,53,59,56,53,100,99,97,29.90,29.82,29.74,10,6,1,12,6,17,1.02,8,Rain-Thunderstorm,186